Regional Weather Roundup
Issued by NWS

Home | Current Version | Previous Version | Graphics & Text | Print | Product List | Glossary On
Versions: 1 2 3 4 5 6 7 8 9 10 11 12 13 14 15 16 17 18 19 20 21 22 23 24 25 26 27 28 29 30 31 32 33 34 35 36 37 38 39 40 41 42 43 44 45 46 47 48 49 50
000
ASUS43 KMPX 282201
RWRMN
WEATHER ROUNDUP FOR MINNESOTA
NATIONAL WEATHER SERVICE TWIN CITIES/CHANHASSEN MN
500 PM CDT TUE MAR 28 2017


NOTE: "FAIR" INDICATES FEW OR NO CLOUDS BELOW 12,000 FEET WITH NO
SIGNIFICANT WEATHER AND/OR OBSTRUCTIONS TO VISIBILITY. N/A MEANS
CURRENT SKY AND/OR WEATHER CONDITIONS ARE NOT AVAILABLE.

MNZ060>063-068>070-282300-
   Twin Cities Metro

CITY           SKY/WX    TMP DP  RH WIND       PRES   REMARKS
TWIN CITIES    CLOUDY    62  28  27 SE5       30.12S
ST PAUL        MOSUNNY   63  27  25 MISG      30.12S
CRYSTAL        SUNNY     62  25  24 E5        30.11F
BLAINE         MOSUNNY   64  25  22 E6        30.12F
LAKEVILLE      SUNNY     61  30  31 E3        30.12F
EDEN PRAIRIE   MOSUNNY   63  29  27 E8        30.11S
SOUTH ST PAUL  MOSUNNY   62  28  28 CALM      30.12S
LAKE ELMO      FAIR      63  32  31 E6        30.13S
$$
MNZ001>005-007-008-013>017-022>024-027-028-282300-
   Northwest Minnesota

CITY           SKY/WX    TMP DP  RH WIND       PRES   REMARKS
BEMIDJI        MOSUNNY   57  29  34 CALM      30.15F
HALLOCK        CLOUDY    48  39  71 N6        30.19F
ROSEAU         MOSUNNY   52  36  54 E5        30.20S
WARROAD        SUNNY     46  32  57 E7        30.22S
THIEF RVR FALL CLOUDY    53  35  50 NE5       30.18F
CROOKSTON      CLOUDY    55  39  54 CALM      30.18F
FOSSTON        PTSUNNY   57  43  58 NE7       30.16S
DETROIT LAKES  SUNNY     59  36  41 N5        30.14F
MOORHEAD       MOSUNNY   55  39  54 N7        30.15F
PARK RAPIDS    MOSUNNY   62  27  26 VRB5      30.12F
MAHNOMEN       FAIR      58  37  44 N8        30.14F
$$
MNZ006-009>011-018-025>026-282300-
   North Central Minnesota

CITY           SKY/WX    TMP DP  RH WIND       PRES   REMARKS
BAUDETTE       SUNNY     52  31  44 N9        30.19S
FLAG ISLAND    SUNNY     45  23  42 N8        30.21S
INTL FALLS     SUNNY     53  27  36 NE5       30.19S
WASKISH        SUNNY     52  34  50 W6        30.17S
BIG FORK       SUNNY     55  28  35 E5        30.16S
LONGVILLE      SUNNY     59  27  29 N5        30.14F
GRAND RAPIDS   SUNNY     58  28  32 CALM      30.16F
CRANE LAKE     SUNNY     54  27  35 CALM      30.20R
ORR            SUNNY     55  23  28 CALM      30.15R
COOK           SUNNY     57  28  33 W6        30.16S
WALKER         FAIR      55  30  37 E6        30.14F
$$
MNZ012-019>021-037-282300-
   Northeast Minnesota

CITY           SKY/WX    TMP DP  RH WIND       PRES   REMARKS
DULUTH         MOSUNNY   58  31  35 S6        30.14S
ELY            SUNNY     55  25  30 NW6       30.16R
HIBBING        SUNNY     56  28  34 W7        30.15R
EVELETH        SUNNY     57  23  26 N3        30.16R
DULUTH HARBOR  SUNNY     45  36  70 CALM      30.16S
TWO HARBORS    MOSUNNY   59  36  41 SE7       30.13S
SILVER BAY     PTSUNNY   50  32  50 E7        30.15R
GRAND MARAIS     N/A     39  33  79 NE9       30.20F
G MARAIS ARPRT SUNNY     45  25  45 SE5       30.18R
$$
MNZ029>031-032-039>041-046>048-054>057-064-282300-
   West Central Minnesota

CITY           SKY/WX    TMP DP  RH WIND       PRES   REMARKS
FERGUS FALLS   SUNNY     59  39  47 NE5       30.15F
WHEATON        SUNNY     59  34  38 CALM      30.13F
MORRIS         MOSUNNY   63  37  39 N6        30.10F
ALEXANDRIA     SUNNY     61  30  31 VRB5      30.12F
ELBOW LAKE     FAIR      58  39  48 NW5       30.12F
WADENA         MOSUNNY   61  34  36 CALM      30.12S
GLENWOOD       SUNNY     61  32  33 N7        30.12F
APPLETON       CLOUDY    61  34  36 E5        30.11F
BENSON         MOSUNNY   64  27  24 S5        30.12F
ORTONVILLE     PTSUNNY   61  36  39 E7        30.11S
MADISON        PTSUNNY   63  37  39 E6        30.12R
WILLMAR        FAIR      61  30  31 E8        30.13F
$$
MNZ033>034-036-042>043-049>051-058-059-282300-
   Central Minnesota

CITY           SKY/WX    TMP DP  RH WIND       PRES   REMARKS
ST CLOUD       SUNNY     62  24  23 VRB5      30.12F
SAUK CENTRE    FAIR      60  32  35 NE6       30.12F
PAYNESVILLE    SUNNY     61  29  29 E8        30.12F
AITKIN         CLOUDY    63  21  20 CALM      30.11F
PINE RIVER     SUNNY     61  34  36 N8        30.15F
BRAINERD       CLOUDY    62  28  27 NE3       30.12F
STAPLES        SUNNY     63  28  27 SE6       30.11F
LONG PRAIRIE   FAIR      61  32  33 NE3       30.12F
LITTLE FALLS   SUNNY     61  30  31 SE6       30.12F
LITCHFIELD     MOSUNNY   63  30  29 NE3       30.13S
BUFFALO        MOSUNNY   62  26  25 NE3       30.13F
MAPLE LAKE     MOSUNNY   63  31  30 E3        30.13F
HUTCHINSON     CLOUDY    62  35  35 NE6       30.13F
$$
MNZ037-044-045-052-053-282300-
   East Central Minnesota

CITY           SKY/WX    TMP DP  RH WIND       PRES   REMARKS
PRINCETON      SUNNY     64  25  22 CALM      30.13S
MORA           CLOUDY    61  28  29 CALM      30.14F
CAMBRIDGE      SUNNY     64  39  39 NE3       30.11F
RUSH CITY      SUNNY     62  24  23 CALM      30.13F
MOOSE LAKE     CLOUDY    61  32  33 E3        30.12S
CLOQUET        CLOUDY    59  25  27 CALM      30.14S
MCGREGOR       SUNNY     61  32  33 N6        30.14S
$$
MNZ071>073-080-081-089-090-097-098-282300-
   Southwest Minnesota

CITY           SKY/WX    TMP DP  RH WIND       PRES   REMARKS
MONTEVIDEO     MOSUNNY   64  36  34 SE10      30.11S
GRANITE FALLS  SUNNY     64  34  33 NE5       30.13R
CANBY          MOSUNNY   61  38  42 SE9       30.12S
MARSHALL       SUNNY     61  35  37 E10G16    30.11R
REDWOOD FALLS  SUNNY     62  31  31 VRB6      30.11R
OLIVIA         SUNNY     61  32  33 E5        30.11S
PIPESTONE      PTSUNNY   57  30  35 E9        30.09F
WINDOM         CLOUDY    61  34  36 E13       30.11S
WORTHINGTON    MOSUNNY   58  35  42 E13       30.10S
JACKSON          N/A     59  34  38 E13       30.11S
TRACY          MOSUNNY   60  38  43 E13       30.11S
SLAYTON        CLOUDY    56  38  50 E13       30.11S
$$
MNZ065>067-074>077-082>085-091>093-282300-
   South Central Minnesota

CITY           SKY/WX    TMP DP  RH WIND       PRES   REMARKS
MANKATO        MOSUNNY   62  36  37 E9        30.12R
NEW ULM        SUNNY     61  30  31 NE7       30.11R
ST JAMES       SUNNY     61  36  39 E10       30.12R
FAIRMONT       SUNNY     59  39  47 E17       30.10S
GLENCOE        MOSUNNY   62  32  33 NE6       30.12S
FARIBAULT      SUNNY     63  36  36 NE6       30.12S
OWATONNA       SUNNY     59  34  38 E8        30.13R
WASECA         SUNNY     59  36  41 NE9       30.14R
ALBERT LEA     SUNNY     57  37  47 E7        30.11S
$$
MNZ078>079-086>088-094>096-282300-
   Southeast Minnesota

CITY           SKY/WX    TMP DP  RH WIND       PRES   REMARKS
ROCHESTER      SUNNY     57  37  47 E9        30.12F
RED WING       SUNNY     63  30  29 S7        30.12S
STANTON        SUNNY     63  34  34 E8        30.11S
DODGE CENTER   SUNNY     57  37  47 E12       30.12F
WINONA         SUNNY     59  37  44 CALM      30.13F
AUSTIN         SUNNY     57  39  51 E6        30.12S
PRESTON        SUNNY     57  34  42 NE6       30.12F
$$
ABBREVIATIONS USED IN REMARKS
   TC - TEMPERATURES IN CELSIUS
  WCI - WIND CHILL INDEX
   HX - HEAT INDEX
  VSB - VISIBILITY
$$



USA.gov is the U.S. government's official web portal to all federal, state and local government web resources and services.